GSAT0221 (PRN E15)

Last updated on Feb. 26, 2020, 4:49 a.m. UTC

1 43564U 18060A   20055.96030777 -.00000054  00000-0  00000-0 0  9998
2 43564  56.7373  44.1507 0006441 281.5579  78.3694  1.70476076  9888
UTC
Height (km)
Latitude
Longitude
Inclination
Orbital Period
UTC large
Height (km)
Speed (km/s)
/
Latitude / Longitude
Inclination (degrees)
Orbital Period (minutes)
Azimuth
Elevation
Range (km)
Doppler Factor
iOS Compass Heading
iOS Angle

Next 30 passes for location: Hong Kong

Rise time Rise Azimuth (degrees) Set time Set Azimuth (degrees) Duration Max altitude (degrees)

No matching passes for this satellites